SCP
0 0 0 0 0 0 0 0 0 0 0 1 1 1 1 1 2 2 2 2 2 3 3 4 4 4 4 5 6 7 5 4 3 3 3 3 4 5 6 7 7 9 10 11
0 0 0 0 0 0 0 0 0 0 0 1 1 1 1 2 2 2 2 2 3 3 4 4 4 4 5 5 6 6 6 6 5 5 4 4 4 4 5 7 8 9 11 11
1 0 0 0 0 0 0 0 0 0 0 1 1 1 2 2 2 2 3 3 4 5 5 5 5 5 5 6 6 7 8 9 8 7 6 6 5 4 5 8 10 11 12 12
1 0 0 0 0 0 0 0 0 0 1 1 1 2 3 3 2 2 3 5 7 7 6 5 5 5 5 5 7 9 11 10 9 7 8 8 7 5 5 8 12 14 14 14
0 0 0 1 1 1 1 1 1 1 1 1 2 2 3 3 3 4 6 8 9 9 8 6 6 6 7 7 7 9 11 10 8 7 8 11 10 7 6 8 14 17 16 15
0 0 0 1 1 1 1 1 1 1 1 2 2 3 3 4 4 6 8 9 9 9 8 7 6 6 8 8 7 8 8 7 7 7 8 10 11 9 8 9 15 19 18 16
0 0 1 1 1 1 1 1 1 2 2 3 3 4 4 4 4 5 7 7 6 6 6 5 5 5 6 6 5 5 5 6 7 9 10 11 12 12 11 11 14 17 16 15
1 1 1 2 2 1 1 2 3 3 4 5 5 5 4 3 3 4 4 4 4 4 4 3 3 3 4 4 4 4 4 6 9 13 15 15 16 16 14 12 12 13 12 12
2 2 2 2 2 2 2 2 3 4 5 5 5 4 3 4 4 4 3 3 3 3 3 3 3 3 3 4 4 5 5 6 10 15 20 21 20 17 15 13 12 11 10 9
3 2 2 2 2 2 2 2 3 3 4 4 4 4 4 5 6 5 4 4 4 4 4 4 3 3 3 4 5 6 6 7 12 18 22 20 17 14 12 12 12 12 11 9
3 3 2 2 2 2 2 3 4 4 3 3 4 5 6 7 7 6 5 4 4 4 4 4 4 4 4 4 6 7 9 11 15 19 20 15 11 10 10 10 10 10 10 9
3 3 3 3 3 3 4 5 5 4 4 4 5 6 7 7 7 6 5 4 4 4 4 4 4 4 4 5 6 8 11 13 14 16 15 11 9 9 9 8 7 6 6 6
3 3 4 5 5 5 6 6 6 5 4 4 5 5 6 6 6 6 5 4 3 3 3 3 4 4 5 5 5 7 9 11 11 11 10 10 9 10 10 9 7 5 4 3
3 3 3 5 6 7 7 7 6 5 4 4 4 5 5 5 6 6 5 4 3 3 3 3 3 4 4 5 5 6 7 9 10 11 11 11 10 11 12 11 9 7 5 3
3 3 4 4 6 7 6 5 5 4 4 4 4 5 5 5 5 5 5 4 3 3 3 3 3 4 4 5 6 7 9 11 12 13 13 12 10 11 14 14 12 10 8 7
3 4 4 5 5 5 5 4 3 3 3 3 4 4 5 4 4 4 5 5 4 3 3 4 4 4 5 5 6 7 10 11 12 13 12 10 9 11 14 15 14 12 11 10
3 3 4 5 5 5 4 3 3 3 2 2 3 3 4 4 4 4 5 5 5 4 4 4 4 4 5 5 5 6 8 9 8 9 9 9 10 12 13 13 13 13 12 10
3 3 4 4 4 4 3 3 2 2 2 2 2 3 3 4 4 4 4 4 5 4 4 4 3 4 5 5 4 5 6 6 6 7 9 10 12 12 11 11 11 11 11 10
2 2 3 3 3 3 3 3 3 3 3 3 3 2 3 3 3 3 3 4 5 5 5 3 3 4 5 5 5 6 7 7 8 9 10 10 10 10 10 9 9 9 9 8
1 2 3 3 3 3 3 4 4 4 4 4 3 3 3 3 4 4 3 4 5 6 4 3 3 4 5 5 6 8 10 10 10 10 9 9 8 8 8 8 8 8 7 7
2 3 4 4 4 4 4 4 5 5 5 4 3 3 3 4 4 4 4 5 5 5 4 4 4 5 5 6 7 9 11 11 11 10 9 9 10 9 8 7 6 6 6 6
3 3 4 4 4 4 5 5 5 5 5 4 4 3 4 4 5 4 4 4 4 4 5 6 5 4 5 6 7 8 9 9 9 9 8 8 9 10 8 4 3 4 5 5
3 3 3 3 3 4 4 4 4 4 4 4 3 4 4 5 4 4 3 2 2 3 5 5 4 3 3 5 6 6 5 5 6 6 6 5 5 6 5 2 2 3 3 4
2 3 3 4 4 3 3 4 4 4 4 3 3 4 4 4 4 3 2 2 1 2 3 3 1 1 2 3 4 4 3 3 3 3 3 2 2 2 2 2 2 2 3 3
2 2 3 4 4 3 3 3 4 4 3 3 3 3 3 3 3 2 2 2 1 1 2 1 1 0 1 2 3 3 3 3 2 2 2 1 1 1 2 2 2 2 2 3
2 2 3 3 3 3 2 3 3 3 2 2 2 1 1 2 2 3 3 2 2 2 2 1 1 1 1 3 4 4 4 3 3 2 2 1 1 2 2 2 2 2 2 2
2 2 2 2 2 2 2 2 2 2 2 1 1 1 1 2 3 3 3 3 2 2 2 2 1 1 2 3 4 4 4 4 3 2 2 2 2 2 2 2 2 2 2 2
Wind_Speed
11 8 9 12 13 14 15 14 12 10 11 8 6 4 3 4 4 5 5 6 7 7 7 7 8 9 9 9 9 9 9 9 9 8 7 7 6 6 6 6 6 5 5 5
11 10 11 13 14 15 15 14 14 13 11 6 5 4 4 4 5 5 6 6 7 7 7 8 8 8 9 9 9 9 9 9 8 8 8 7 7 7 6 6 6 6 6 6
11 10 11 15 14 15 15 13 14 14 9 5 6 6 5 4 4 5 5 5 6 7 7 8 8 8 8 9 9 9 9 9 8 8 8 8 8 7 7 6 6 6 6 6
9 10 16 7 5 10 12 12 11 9 8 7 6 5 4 3 4 4 4 5 5 5 6 7 7 7 8 9 9 9 9 9 8 8 8 8 7 7 7 6 6 6 6 6
9 13 12 7 7 9 11 11 9 9 8 6 4 5 5 3 4 4 4 4 4 4 5 6 6 7 7 8 8 9 9 8 8 9 8 8 8 7 7 6 6 6 6 6
10 13 13 7 5 5 8 11 7 8 7 6 6 8 4 2 2 2 2 2 3 3 3 4 5 6 6 7 8 8 8 8 8 8 8 8 7 7 6 6 6 6 5 6
13 13 8 2 4 7 10 4 3 4 5 6 5 3 2 1 1 1 1 2 2 3 3 3 4 5 6 6 7 7 7 7 7 7 7 7 6 6 6 6 6 6 6 6
12 14 8 4 6 7 2 1 2 3 4 4 2 1 1 1 1 2 2 3 3 3 3 3 4 5 5 5 6 5 6 6 7 6 6 6 6 6 6 6 7 7 6 7
6 5 1 2 3 1 1 2 2 3 3 4 4 3 1 1 1 2 2 3 3 3 3 3 3 4 4 3 4 5 6 6 6 6 5 5 6 6 6 6 6 6 6 6
6 5 4 3 3 3 2 2 3 3 3 4 4 3 2 1 2 2 2 2 2 3 3 3 2 3 3 3 4 5 5 6 6 6 6 6 5 6 6 6 6 5 5 5
8 6 5 5 4 3 2 2 2 2 2 3 4 3 2 2 3 3 2 1 2 2 2 2 2 2 2 3 4 5 5 5 5 6 5 5 5 4 5 4 3 4 5 5
6 5 5 4 4 4 3 3 2 2 2 2 2 3 2 3 3 3 2 2 1 1 1 1 1 1 1 2 4 4 5 5 4 4 4 5 5 4 2 3 2 3 3 4
6 5 4 4 4 4 4 3 3 3 2 2 2 2 3 3 3 3 3 2 1 1 1 1 1 1 1 2 3 4 4 4 4 4 4 5 5 5 5 4 4 5 6 5
5 5 5 5 4 4 4 3 3 2 2 2 2 2 3 3 3 4 3 2 1 1 1 1 1 0 1 2 3 4 5 4 4 4 4 4 4 4 4 5 4 4 5 7
7 8 6 5 4 4 4 4 3 3 3 3 3 2 3 3 3 3 2 2 2 1 1 1 1 1 1 2 2 3 4 3 3 3 4 4 4 4 4 4 3 3 3 4
6 7 7 7 6 6 5 5 4 3 3 3 3 3 3 3 3 3 2 2 1 1 1 1 1 1 1 2 3 3 3 4 4 4 4 4 4 4 3 3 3 3 3 3
8 8 8 7 7 6 6 5 4 3 3 3 3 3 4 3 3 3 2 1 0 1 1 1 2 2 2 2 3 3 3 3 4 5 4 3 3 3 3 3 4 4 4 2
9 8 8 7 6 5 5 4 4 4 3 3 4 4 4 4 3 2 2 1 1 2 2 2 2 2 3 3 3 3 3 3 3 4 3 3 3 3 4 4 4 4 3 1
8 8 8 6 6 6 5 5 4 4 3 4 5 5 4 3 3 2 2 3 3 4 3 2 2 4 3 3 3 3 3 3 3 3 3 3 4 4 4 4 4 4 3 2
8 7 7 6 5 5 5 5 5 5 4 4 4 4 3 3 3 3 3 4 4 3 2 2 4 4 3 2 4 3 3 3 3 3 3 3 3 3 3 3 3 3 3 3
6 6 5 5 5 4 4 4 3 3 3 3 4 4 4 3 3 3 3 3 2 2 2 2 3 2 2 1 4 3 2 3 3 3 3 2 2 3 3 3 3 3 3 3
4 4 4 4 3 3 3 3 3 3 3 3 4 3 3 3 3 3 3 3 2 0 2 2 1 2 2 3 3 2 2 2 2 2 2 2 2 2 3 3 3 2 2 2
2 3 4 4 4 3 2 2 3 3 3 3 3 4 4 3 3 3 3 1 1 0 2 1 2 2 1 3 1 2 2 2 2 2 2 2 2 3 3 3 3 2 2 2
2 3 3 3 3 3 2 2 2 2 3 3 3 3 3 3 3 2 1 1 1 1 1 2 2 1 4 3 1 1 2 2 2 2 2 2 2 3 3 3 3 3 2 2
1 2 2 3 3 2 2 2 2 3 3 3 3 3 4 3 2 1 1 0 1 1 1 2 2 2 3 2 2 2 2 2 2 3 2 3 3 3 3 3 3 2 2 2
2 2 2 2 2 2 2 2 2 2 2 3 3 2 1 1 1 1 1 1 1 1 1 1 1 2 2 1 2 2 2 1 1 2 3 3 3 3 2 2 3 2 2 1
3 3 3 3 2 3 3 3 3 3 3 3 2 2 2 2 2 1 1 1 1 1 1 1 1 1 1 1 1 1 1 2 2 2 2 3 2 2 2 2 1 1 1 0
Wind_Direction
241 240 227 224 221 220 232 244 253 251 250 244 246 247 224 205 192 188 184 186 185 184 177 180 183 186 189 190 187 187 188 192 190 190 191 193 196 198 200 207 210 208 210 214
229 226 227 234 229 225 231 241 248 254 251 249 240 227 212 203 193 194 192 192 190 189 185 185 183 186 186 188 185 186 191 193 188 188 191 194 196 198 200 206 214 211 214 218
225 217 228 231 225 224 227 233 243 248 249 232 229 216 208 205 207 208 202 197 195 192 191 190 188 185 188 187 184 187 192 192 189 191 194 197 199 198 203 205 208 211 217 221
225 213 228 226 220 231 235 237 242 252 252 241 233 227 215 213 219 219 213 207 200 198 192 190 186 185 186 185 186 189 190 191 192 194 196 198 202 205 206 208 207 210 215 220
225 224 229 221 220 225 230 236 240 243 240 234 218 213 200 205 218 218 214 210 198 197 191 187 187 183 183 187 188 190 192 194 196 198 199 199 202 205 206 208 210 211 210 214
227 234 231 212 195 221 236 234 220 226 228 222 211 228 190 166 210 213 205 193 184 187 183 178 182 178 181 186 192 195 193 194 196 199 201 203 201 202 203 207 210 214 209 214
227 234 234 212 181 193 224 226 165 207 218 223 231 289 26 214 214 221 186 185 178 182 181 176 176 177 185 190 196 195 190 192 195 199 204 203 197 200 204 208 208 214 216 219
225 232 224 163 186 216 245 72 185 211 219 215 208 222 270 215 210 179 162 168 168 167 167 168 172 180 187 196 193 189 191 194 192 198 208 196 198 203 206 210 209 213 218 226
236 242 53 182 201 211 238 216 214 224 207 196 198 207 212 185 157 152 155 157 160 157 154 161 169 184 193 196 190 189 193 197 197 198 208 205 199 200 203 208 218 220 220 223
244 229 227 223 219 223 236 222 218 214 204 195 195 196 186 163 139 127 142 146 148 155 156 160 170 186 198 199 192 194 195 198 198 199 203 204 212 214 218 218 220 224 229 232
233 231 223 223 228 225 230 220 202 198 203 196 186 184 178 164 142 128 122 125 149 155 154 155 157 174 188 200 197 200 201 202 203 203 205 204 211 226 232 233 243 244 240 241
243 223 231 208 211 213 208 202 192 181 179 188 192 189 182 151 133 127 126 124 136 141 144 144 153 177 202 210 204 206 203 202 206 204 200 209 204 207 215 236 209 225 256 270
261 263 257 226 220 217 218 211 209 212 209 194 199 170 153 135 127 124 115 111 120 133 144 154 176 187 208 223 211 212 219 211 216 216 209 217 218 216 212 207 201 212 227 234
246 241 230 222 221 217 212 211 211 211 212 199 165 149 142 134 130 126 122 125 124 127 142 157 170 210 259 236 219 219 227 212 221 222 223 227 232 233 230 224 217 216 206 211
235 235 228 219 221 214 210 208 200 187 171 162 157 151 143 141 136 132 124 125 123 123 127 174 199 262 276 255 236 232 237 229 222 232 233 231 237 244 241 239 243 240 222 190
235 225 217 214 211 207 204 197 191 182 179 173 166 159 149 144 140 141 137 132 138 146 180 221 251 286 279 263 250 241 236 232 228 232 232 229 234 241 244 241 242 246 251 232
236 222 215 212 207 201 196 197 196 195 188 183 178 165 157 156 161 164 161 157 186 233 235 242 268 284 277 272 265 254 241 218 223 239 237 236 239 246 255 259 258 255 263 244
248 246 240 234 218 205 200 201 201 199 191 184 181 176 175 181 188 187 194 206 231 242 245 250 267 271 267 268 264 262 251 236 231 246 251 250 261 262 258 254 259 261 266 226
240 239 237 233 229 220 211 205 205 205 197 186 181 181 182 188 196 210 217 234 245 243 245 258 247 247 250 267 274 248 242 234 232 241 249 240 244 252 255 255 261 267 269 266
224 222 221 219 220 217 213 208 203 199 197 189 186 185 186 193 204 221 232 245 255 272 248 240 245 251 250 234 262 253 247 243 243 243 246 253 261 267 267 269 268 271 276 277
215 209 203 206 208 207 205 204 195 191 191 187 189 196 200 205 210 223 238 251 248 263 251 211 230 236 241 262 251 255 258 261 260 262 261 263 268 270 271 270 272 271 271 275
200 197 191 185 187 190 189 193 191 193 200 204 207 207 209 216 221 228 245 272 273 266 256 249 259 45 5 282 261 275 280 284 285 282 277 275 275 277 279 276 271 272 274 276
156 162 167 169 173 175 179 193 199 208 214 213 215 221 231 244 253 254 253 246 264 282 273 318 52 78 284 261 269 278 282 281 280 279 282 280 277 281 281 280 279 277 271 271
149 154 160 166 171 180 191 202 214 220 220 217 219 227 237 243 242 250 284 99 87 268 296 67 102 180 256 259 264 265 274 279 279 285 284 279 275 270 270 270 275 281 278 275
177 189 187 195 210 215 205 205 210 214 222 220 222 225 238 248 258 277 292 314 127 213 195 126 158 221 252 280 288 291 287 304 313 304 290 289 285 279 278 283 282 279 280 280
235 240 235 234 242 243 233 225 223 220 225 230 233 229 231 235 240 239 230 220 215 204 240 177 175 218 256 289 301 305 312 310 278 281 296 293 288 289 283 282 282 289 294 301
224 226 222 223 222 226 229 229 229 229 228 226 231 226 219 223 224 230 239 241 226 219 206 188 201 257 312 341 350 337 332 333 331 325 314 307 307 304 301 289 282 279 286 345